Weather History for KMDS - May, 2013

Change the Weather History Date:

Wednesday, May 1, 2013

  Actual Average Record
Temperature  
Mean Temperature 38 °F -  
Max Temperature 44 °F 61 °F 80 °F (2012)
Min Temperature 33 °F 37 °F 30 °F (2011)
Degree Days  
Heating Degree Days 26    
Moisture  
Dew Point 27 °F    
Average Humidity 65    
Maximum Humidity 87    
Minimum Humidity 45    
Precipitation  
Precipitation 0.02 in - - ()
Sea Level Pressure  
Sea Level Pressure 30.33 in    
Wind  
Wind Speed 16 mph (North)    
Max Wind Speed 22 mph    
Max Gust Speed 29 mph    
Visibility 10 miles    
Events Rain    
Averages and records for this station are not official NWS values.
T = Trace of Precipitation, MM = Missing Value Source: NWS Daily Summary

Daily Weather History Graph

Daily Weather History Graph

Search for Another Location

Airport or City:

Trip Planner

Search our weather history database for the weather conditions in past years. The results will help you decide how hot, cold, wet, or windy it might be!

Date:

Astronomy

May. 01, 2013 Rise Set
Actual Time 6:19 AM CDT 8:31 PM CDT
Civil Twilight 5:47 AM CDT 9:03 PM CDT
Nautical Twilight 5:08 AM CDT 9:43 PM CDT
Astronomical Twilight 4:25 AM CDT 10:26 PM CDT
Moon 1:42 AM CDT (5/1) 11:59 AM CDT (5/1)
Length of Visible Light 15h 16m
Length of Day
14h 12m
Waning Gibbous, 59% of the Moon is Illuminated
May 1
Waning Gibbous
May 2
Last Quarter
May 9
New
May 17
First Quarter
May 24
Full

Hourly Weather History & Observations

Time (CDT) Temp. Windchill Dew Point Humidity Pressure Visibility Wind Dir Wind Speed Gust Speed Precip Events Conditions
12:15 AM 44.6 °F 36.9 °F 35.6 °F 71% 30.08 in 10.0 mi North 18.4 mph - N/A Rain Light Rain
12:35 AM 44.6 °F 36.9 °F 35.6 °F 71% 30.08 in 10.0 mi North 18.4 mph - 0.01 in Rain Light Rain
12:55 AM 42.8 °F 38.0 °F 35.6 °F 76% 30.10 in 10.0 mi North 8.1 mph 21.9 mph 0.02 in Rain Light Rain
1:15 AM 42.8 °F 35.8 °F 35.6 °F 76% 30.09 in 10.0 mi North 13.8 mph - N/A   Overcast
1:35 AM 42.8 °F 36.2 °F 37.4 °F 81% 30.11 in 10.0 mi North 12.7 mph - N/A Rain Light Rain
1:55 AM 41.0 °F 33.1 °F 37.4 °F 87% 30.12 in 10.0 mi North 15.0 mph - N/A Rain Light Rain
2:15 AM 39.2 °F 29.8 °F 35.6 °F 87% 30.11 in 10.0 mi North 18.4 mph - N/A Rain Light Rain
2:35 AM 39.2 °F 30.8 °F 35.6 °F 87% 30.09 in 10.0 mi NNE 15.0 mph - N/A   Mostly Cloudy
2:55 AM 39.2 °F 30.5 °F 32.0 °F 75% 30.13 in 10.0 mi North 16.1 mph - N/A   Overcast
3:15 AM 37.4 °F 28.5 °F 32.0 °F 81% 30.14 in 10.0 mi North 15.0 mph - N/A   Overcast
3:35 AM 37.4 °F 27.5 °F 32.0 °F 81% 30.14 in 10.0 mi North 18.4 mph - N/A   Overcast
3:55 AM 37.4 °F 27.5 °F 30.2 °F 75% 30.14 in 10.0 mi North 18.4 mph - N/A   Overcast
4:15 AM 35.6 °F 25.5 °F 28.4 °F 75% 30.14 in 10.0 mi North 17.3 mph - N/A   Overcast
4:35 AM 35.6 °F 27.1 °F 30.2 °F 81% 30.18 in 10.0 mi North 12.7 mph - N/A   Overcast
4:55 AM 35.6 °F 25.9 °F 26.6 °F 70% 30.20 in 10.0 mi North 16.1 mph 21.9 mph N/A   Overcast
5:15 AM 35.6 °F 27.5 °F 28.4 °F 75% 30.22 in 10.0 mi North 11.5 mph - N/A   Overcast
5:35 AM 35.6 °F 27.1 °F 26.6 °F 70% 30.24 in 10.0 mi North 12.7 mph - N/A   Overcast
5:55 AM 33.8 °F 24.3 °F 26.6 °F 75% 30.26 in 10.0 mi North 13.8 mph - N/A   Overcast
6:15 AM 33.8 °F 25.3 °F 26.6 °F 75% 30.26 in 10.0 mi North 11.5 mph - N/A   Overcast
6:35 AM 33.8 °F 25.8 °F 26.6 °F 75% 30.28 in 10.0 mi North 10.4 mph - N/A   Mostly Cloudy
6:55 AM 33.8 °F 25.3 °F 26.6 °F 75% 30.30 in 10.0 mi North 11.5 mph - N/A   Overcast
7:15 AM 33.8 °F 25.3 °F 26.6 °F 75% 30.29 in 10.0 mi North 11.5 mph - N/A   Overcast
7:35 AM 33.8 °F 24.3 °F 26.6 °F 75% 30.29 in 10.0 mi North 13.8 mph - N/A   Scattered Clouds
7:55 AM 33.8 °F 23.5 °F 26.6 °F 75% 30.29 in 10.0 mi North 16.1 mph - N/A   Mostly Cloudy
8:15 AM 33.8 °F 24.3 °F 26.6 °F 75% 30.28 in 10.0 mi North 13.8 mph - N/A   Scattered Clouds
8:35 AM 33.8 °F 23.9 °F 26.6 °F 75% 30.30 in 10.0 mi North 15.0 mph - N/A   Overcast
8:55 AM 35.6 °F 26.2 °F 26.6 °F 70% 30.31 in 10.0 mi North 15.0 mph - N/A   Overcast
9:15 AM 35.6 °F 25.9 °F 26.6 °F 70% 30.33 in 10.0 mi North 16.1 mph - N/A   Overcast
9:35 AM 35.6 °F 25.9 °F 26.6 °F 70% 30.32 in 10.0 mi North 16.1 mph - N/A   Mostly Cloudy
9:55 AM 35.6 °F 25.9 °F 26.6 °F 70% 30.33 in 10.0 mi North 16.1 mph 20.7 mph N/A   Scattered Clouds
10:15 AM 35.6 °F 25.9 °F 26.6 °F 70% 30.33 in 10.0 mi NNE 16.1 mph - N/A   Mostly Cloudy
10:35 AM 35.6 °F 25.5 °F 26.6 °F 70% 30.33 in 10.0 mi North 17.3 mph - N/A   Mostly Cloudy
10:55 AM 37.4 °F 27.8 °F 26.6 °F 65% 30.34 in 10.0 mi North 17.3 mph 23.0 mph N/A   Mostly Cloudy
11:15 AM 37.4 °F 28.9 °F 26.6 °F 65% 30.35 in 10.0 mi North 13.8 mph - N/A   Scattered Clouds
11:35 AM 37.4 °F 29.8 °F 26.6 °F 65% 30.36 in 10.0 mi North 11.5 mph - N/A   Clear
11:55 AM 39.2 °F 29.8 °F 24.8 °F 56% 30.37 in 10.0 mi North 18.4 mph 25.3 mph N/A   Clear
12:15 PM 39.2 °F 29.3 °F 23.0 °F 52% 30.36 in 10.0 mi NNW 20.7 mph 25.3 mph N/A   Clear
12:35 PM 39.2 °F 29.0 °F 23.0 °F 52% 30.37 in 10.0 mi North 21.9 mph - N/A   Clear
12:55 PM 39.2 °F 29.3 °F 23.0 °F 52% 30.36 in 10.0 mi North 20.7 mph 26.5 mph N/A   Clear
1:15 PM 39.2 °F 29.6 °F 23.0 °F 52% 30.37 in 10.0 mi North 19.6 mph 25.3 mph N/A   Clear
1:35 PM 39.2 °F 29.6 °F 23.0 °F 52% 30.37 in 10.0 mi North 19.6 mph 26.5 mph N/A   Clear
1:55 PM 39.2 °F 29.0 °F 23.0 °F 52% 30.38 in 10.0 mi North 21.9 mph 27.6 mph N/A   Clear
2:15 PM 39.2 °F 29.8 °F 23.0 °F 52% 30.38 in 10.0 mi North 18.4 mph 25.3 mph N/A   Clear
2:35 PM 39.2 °F 29.3 °F 23.0 °F 52% 30.39 in 10.0 mi North 20.7 mph 25.3 mph N/A   Clear
2:55 PM 41.0 °F 31.6 °F 23.0 °F 49% 30.40 in 10.0 mi North 20.7 mph 25.3 mph N/A   Clear
3:15 PM 41.0 °F 32.2 °F 23.0 °F 49% 30.39 in 10.0 mi NNE 18.4 mph 27.6 mph N/A   Clear
3:35 PM 41.0 °F 31.4 °F 21.2 °F 45% 30.40 in 10.0 mi North 21.9 mph 27.6 mph N/A   Clear
3:55 PM 41.0 °F 31.6 °F 21.2 °F 45% 30.41 in 10.0 mi NNE 20.7 mph 28.8 mph N/A   Clear
4:15 PM 41.0 °F 31.9 °F 21.2 °F 45% 30.42 in 10.0 mi North 19.6 mph - N/A   Clear
4:35 PM 39.2 °F 29.3 °F 21.2 °F 49% 30.42 in 10.0 mi North 20.7 mph 26.5 mph N/A   Clear
4:55 PM 41.0 °F 31.6 °F 23.0 °F 49% 30.43 in 10.0 mi North 20.7 mph 28.8 mph N/A   Clear
5:15 PM 41.0 °F 31.6 °F 23.0 °F 49% 30.43 in 10.0 mi NNE 20.7 mph 27.6 mph N/A   Clear
5:35 PM 41.0 °F 31.6 °F 23.0 °F 49% 30.43 in 10.0 mi NNE 20.7 mph 26.5 mph N/A   Clear
5:55 PM 41.0 °F 31.4 °F 23.0 °F 49% 30.44 in 10.0 mi North 21.9 mph 26.5 mph N/A   Clear
6:15 PM 41.0 °F 31.9 °F 23.0 °F 49% 30.45 in 10.0 mi NNE 19.6 mph 25.3 mph N/A   Clear
6:35 PM 41.0 °F 32.8 °F 23.0 °F 49% 30.46 in 10.0 mi North 16.1 mph 23.0 mph N/A   Clear
6:55 PM 41.0 °F 32.5 °F 23.0 °F 49% 30.46 in 10.0 mi NNE 17.3 mph - N/A   Scattered Clouds
7:15 PM 41.0 °F 32.5 °F 23.0 °F 49% 30.47 in 10.0 mi NNE 17.3 mph - N/A   Mostly Cloudy
7:35 PM 41.0 °F 32.8 °F 24.8 °F 53% 30.46 in 10.0 mi NNE 16.1 mph - N/A   Partly Cloudy
8:15 PM 39.2 °F 30.8 °F 24.8 °F 56% 30.47 in 10.0 mi NNE 15.0 mph 19.6 mph N/A   Overcast
8:35 PM 39.2 °F 30.8 °F 24.8 °F 56% 30.48 in 10.0 mi NNE 15.0 mph - N/A   Mostly Cloudy
9:15 PM 37.4 °F 28.2 °F 24.8 °F 60% 30.48 in 10.0 mi NNE 16.1 mph 21.9 mph N/A   Mostly Cloudy
9:35 PM 37.4 °F 28.9 °F 24.8 °F 60% 30.49 in 10.0 mi NNE 13.8 mph - N/A   Partly Cloudy
9:55 PM 37.4 °F 28.5 °F 26.6 °F 65% 30.50 in 10.0 mi NNE 15.0 mph 21.9 mph N/A   Clear
10:15 PM 35.6 °F 25.5 °F 26.6 °F 70% 30.51 in 10.0 mi NNE 17.3 mph 24.2 mph N/A   Clear
10:35 PM 35.6 °F 26.2 °F 26.6 °F 70% 30.51 in 10.0 mi NNE 15.0 mph - N/A   Clear
10:55 PM 35.6 °F 26.2 °F 26.6 °F 70% 30.50 in 10.0 mi NNE 15.0 mph 21.9 mph N/A   Clear
11:15 PM 33.8 °F 23.2 °F 26.6 °F 75% 30.51 in 10.0 mi NNE 17.3 mph 23.0 mph N/A   Clear
11:35 PM 33.8 °F 22.8 °F 26.6 °F 75% 30.51 in 10.0 mi NNE 18.4 mph - N/A   Clear
11:55 PM 33.8 °F 23.5 °F 26.6 °F 75% 30.51 in 10.0 mi NNE 16.1 mph 24.2 mph N/A   Clear